Find Starlink 32773

NORAD ID: 62571 Int'l Des: 2025-006 Owner: SPXS Country: US Constellation: starlink operational
LEOCIRCULAR

Current View

Loading 3D Globe...

About Starlink 32773

Starlink 32773 (NORAD 62571) is a starlink constellation satellite (v2 mini) launched Jan 10, 2025 by SPXS of US. It operates in LEO, CIRCULAR orbit with a mass of 730.00 kg.

About Starlink 32773

Description loading...

Upcoming Passes

Passes for default location (London). Set your location on the main map for personalized predictions.

Altitude History

Loading altitude history...

Two-Line Element Set

1 62571U 25006T 26169.18360662 .00014353 00000-0 52974-3 0 9996
2 62571 43.0039 84.8875 0003080 280.1886 79.8619 15.27598970 80232
Epoch: Jun 18, 2026 • Age: 10 hours

Current Status

Altitude 483.1 km
Velocity 7.63 km/s
Sub-Earth Point 12.46°N, 124.14°E
Launch Date Jan 10, 2025
Age 1.4 years
Type internet

Technical Details

Classification Payload
Mass 730.00 kg
Dry Mass 700.00 kg
Total Mass 730.00 kg
Length 0.30 m
Diameter 4.10 m
Span 29.00 m
Shape Box + pan
Manufacturer SPXS
Bus Type Starlink V2M
Phase Status In Orbit
Owner/State SPXS/US

Most Searched